Location: Kott?ru
(16.6209°N, 80.6208°E)
Time: 19:56:20
(UTC+00:00)

NOAA 15 - Visible Passes

Search period start: 04 June 2023 00:00
Search period end: 14 June 2023 00:00
Orbit: 797 x 811 km, 98.6° (Epoch: 04 June)

Date Brightness Start Highest point End Pass type
(mag) Time Alt. Az. Time Alt. Az. Time Alt. Az.
04 Jun 5.9 14:23:29 10° SSW 14:28:16 37° W 14:33:05 10° NNW visible
05 Jun 4.8 13:57:37 10° S 14:02:50 75° WSW 14:08:03 10° NNW visible
06 Jun 4.7 13:32:21 10° SSE 13:37:26 55° ENE 13:42:32 10° N visible
07 Jun 6.9 14:47:56 10° SW 14:51:41 20° W 14:55:27 10° NW visible
08 Jun 5.8 14:21:21 10° S 14:26:12 39° W 14:31:04 10° NNW visible
09 Jun 4.7 13:55:32 10° S 14:00:46 79° WSW 14:06:01 10° NNW visible
10 Jun 4.8 13:30:18 10° SSE 13:35:22 52° ENE 13:40:27 10° N visible
11 Jun 6.8 14:45:43 10° SSW 14:49:36 21° W 14:53:30 10° NW visible
12 Jun 5.8 14:19:13 10° S 14:24:07 41° W 14:29:03 10° NNW visible
13 Jun 4.7 13:53:27 10° S 13:58:41 83° WSW 14:03:56 10° NNW visible
